sat.trackr.live / text

‹ back to catalog

UNKNOWN

NORAD 81103

UNKNOWN UNKNOWN UNKNOWN

§ Identity

Operator
Country
Launch date
Launch site
Launch vehicle
Mass (kg)
RCS (m²)

External: N2YO · Heavens-Above

§ Orbital elements

Epoch: 2026-08-12T01:53:09.841632Z

Period
161.59 min
Inclination
52.0351°
Eccentricity
0.3262493
Mean motion
8.91143370 rev/d
Perigee alt
243.1 km
Apogee alt
6,655.4 km
Semi-major
9,827.4 km
B*
1.9236e-4
RAAN
117.0407°
Arg perigee
113.2956°
Mean anomaly
284.1651°
Rev number
1

§ Raw data

UNKNOWN1 81103U          26224.07858613  .00007480  00000+0  19236-3 0  99992 81103  52.0351 117.0407 3262493 113.2956 284.1651  8.91143370    11

JSON: /api/v1/satellites/81103 · /tle

For live sub-satellite position, see the globe view (requires WebGL).

§ Visibility from observer

Set your observer location to see the next 7 days of passes ≥ 10°. The values pass through the URL so the page stays shareable.

No JS? Fill the form by hand. The geolocation button needs JavaScript.